THAICOM 6

Last updated on May 23, 2019, 3:05 a.m. UTC

1 39500U 14002A   19142.12035682 -.00000130  00000-0  00000+0 0  9992
2 39500   0.0589 121.0977 0003860 336.9446 263.2272  1.00274373 19629
UTC
Height (km)
Latitude
Longitude
Inclination
Orbital Period
UTC large
Height (km)
Speed (km/s)
/
Latitude / Longitude
Inclination (degrees)
Orbital Period (minutes)
Azimuth
Elevation
Range (km)
Doppler Factor
iOS Compass Heading
iOS Angle

Next 30 passes for location: Hong Kong

Rise time Rise Azimuth (degrees) Set time Set Azimuth (degrees) Duration Max altitude (degrees)

No matching passes for this satellites